FW6934 Weather Reports


time (UTC)temp
C
wind
direction
speed
KPH
gust
KPH
rain 1hr
cm
rain 24hr
cm
rain mn
cm
humidity
%
barometer
mb
20260901063555 17 236 0.0 0.0 0.00 0.00 0.00 72 996.8
20260901063009 18 236 0.0 0.0 0.00 0.00 0.00 72 996.6
20260901062524 18 236 0.0 1.6 0.00 0.00 0.00 71 996.6
20260901062027 18 236 0.0 3.2 0.00 0.00 0.00 71 996.6
20260901061600 18 236 0.0 3.2 0.00 0.00 0.00 71 996.6
20260901061105 18 236 1.6 4.8 0.00 0.00 0.00 70 996.5
20260901060602 18 236 1.6 4.8 0.00 0.00 0.00 70 996.4
20260901060033 18 236 0.0 0.0 0.00 0.00 0.00 69 996.4
20260901055541 18 236 0.0 0.0 0.00 0.00 0.00 69 996.3
20260901055047 18 236 0.0 0.0 0.00 0.00 0.00 69 996.3
20260901054521 19 236 0.0 0.0 0.00 0.00 0.00 69 996.1
20260901054028 19 236 0.0 0.0 0.00 0.00 0.00 68 996.1
20260901053538 19 236 0.0 0.0 0.00 0.00 0.00 67 996.0
20260901053004 19 236 0.0 0.0 0.00 0.00 0.00 67 996.1
20260901052517 20 236 0.0 0.0 0.00 0.00 0.00 67 996.0
20260901052030 20 236 0.0 0.0 0.00 0.00 0.00 67 996.0
20260901051553 20 236 0.0 0.0 0.00 0.00 0.00 66 995.9
20260901051101 20 236 0.0 0.0 0.00 0.00 0.00 66 995.9
20260901050519 20 236 0.0 0.0 0.00 0.00 0.00 66 995.9
20260901050051 20 236 0.0 0.0 0.00 0.00 0.00 65 995.9
20260901045549 20 236 0.0 0.0 0.00 0.00 0.00 64 995.9
20260901045058 20 236 0.0 0.0 0.00 0.00 0.00 64 995.9
20260901044531 20 236 0.0 0.0 0.00 0.00 0.00 63 995.9
20260901044027 21 236 0.0 4.8 0.00 0.00 0.00 63 995.8
20260901043507 21 236 1.6 4.8 0.00 0.00 0.00 63 995.8
20260901043105 21 236 1.6 3.2 0.00 0.00 0.00 62 995.8
20260901042553 21 236 0.0 0.0 0.00 0.00 0.00 62 995.8
20260901042055 21 236 0.0 0.0 0.00 0.00 0.00 61 995.6
20260901041529 21 236 0.0 4.8 0.00 0.00 0.00 61 995.6
20260901041035 21 236 0.0 6.4 0.00 0.00 0.00 60 995.5
20260901040543 21 236 0.0 6.4 0.00 0.00 0.00 59 995.5
20260901040021 21 226 0.0 4.8 0.00 0.00 0.00 58 995.4
20260901035527 22 207 1.6 4.8 0.00 0.00 0.00 58 995.4
20260901035034 22 209 1.6 4.8 0.00 0.00 0.00 58 995.3
20260901034501 22 244 3.2 6.4 0.00 0.00 0.00 57 995.3
20260901034017 22 244 1.6 6.4 0.00 0.00 0.00 56 995.2
20260901033525 22 209 3.2 6.4 0.00 0.00 0.00 56 995.1
20260901033112 22 5 0.0 9.7 0.00 0.00 0.00 55 995.0
20260901032506 22 314 3.2 9.7 0.00 0.00 0.00 54 994.9
20260901032010 23 291 3.2 8.0 0.00 0.00 0.00 54 994.8
20260901031607 23 302 1.6 4.8 0.00 0.00 0.00 54 994.6
20260901031059 23 282 0.0 3.2 0.00 0.00 0.00 53 994.4
20260901030505 23 194 0.0 0.0 0.00 0.00 0.00 52 994.2
20260901030045 23 194 0.0 1.6 0.00 0.00 0.00 52 994.2
20260901025547 23 194 0.0 4.8 0.00 0.00 0.00 51 994.3
20260901025053 23 194 1.6 4.8 0.00 0.00 0.00 51 994.3
20260901024508 24 206 1.6 4.8 0.00 0.00 0.00 50 994.3
20260901024015 24 206 1.6 4.8 0.00 0.00 0.00 50 994.3
20260901023529 24 206 1.6 4.8 0.00 0.00 0.00 49 994.4
20260901023108 24 206 0.0 4.8 0.00 0.00 0.00 49 994.4
20260901022505 24 205 1.6 4.8 0.00 0.00 0.00 49 994.4
20260901022010 25 205 1.6 4.8 0.00 0.00 0.00 49 994.4
20260901021547 25 205 1.6 4.8 0.00 0.00 0.00 48 994.4
20260901021056 25 189 0.0 4.8 0.00 0.00 0.00 48 994.4
20260901020603 25 189 1.6 3.2 0.00 0.00 0.00 48 994.5
20260901020038 25 190 1.6 4.8 0.00 0.00 0.00 48 994.6
20260901015543 25 190 1.6 4.8 0.00 0.00 0.00 47 994.6
20260901015048 25 184 1.6 4.8 0.00 0.00 0.00 47 994.5
20260901014523 26 184 1.6 4.8 0.00 0.00 0.00 46 994.5
20260901014031 26 196 1.6 4.8 0.00 0.00 0.00 47 994.5
20260901013537 26 179 1.6 4.8 0.00 0.00 0.00 47 994.5
20260901013007 26 196 0.0 6.4 0.00 0.00 0.00 47 994.5
20260901012519 26 181 0.0 6.4 0.00 0.00 0.00 45 994.5
20260901012024 26 162 0.0 6.4 0.00 0.00 0.00 45 994.5
20260901011555 26 186 0.0 4.8 0.00 0.00 0.00 45 994.5
20260901011101 26 195 0.0 3.2 0.00 0.00 0.00 45 994.6
20260901010505 26 195 0.0 6.4 0.00 0.00 0.00 47 994.5
20260901010031 26 195 1.6 6.4 0.00 0.00 0.00 45 994.6
20260901005534 26 188 0.0 4.8 0.00 0.00 0.00 45 994.6
20260901005043 26 186 0.0 4.8 0.00 0.00 0.00 46 994.6
20260901004509 26 181 0.0 8.0 0.00 0.00 0.00 45 994.6
20260901004022 27 181 0.0 8.0 0.00 0.00 0.00 45 994.6
20260901003533 27 181 0.0 8.0 0.00 0.00 0.00 43 994.7
20260901003002 27 197 3.2 8.0 0.00 0.00 0.00 43 994.6
20260901002509 27 187 0.0 6.4 0.00 0.00 0.00 43 994.7
20260901002015 28 188 0.0 6.4 0.00 0.00 0.00 43 994.7
20260901001553 28 360 3.2 6.4 0.00 0.00 0.00 39 994.7
20260901001046 28 355 3.2 6.4 0.00 0.00 0.00 39 994.7
20260901000552 28 65 1.6 6.4 0.00 0.00 0.00 40 994.8
20260901000032 28 150 3.2 6.4 0.00 0.00 0.00 40 994.7
20260831235537 28 19 0.0 6.4 0.00 0.00 0.00 42 994.7
20260831235043 28 19 1.6 6.4 0.00 0.00 0.00 41 994.8
20260831234520 28 360 3.2 4.8 0.00 0.00 0.00 41 994.7
20260831234028 28 117 1.6 6.4 0.00 0.00 0.00 40 994.8
20260831233531 28 176 1.6 6.4 0.00 0.00 0.00 40 994.7
20260831233058 28 304 0.0 6.4 0.00 0.00 0.00 40 994.8
20260831232514 28 128 1.6 6.4 0.00 0.00 0.00 40 994.7
20260831232021 28 67 0.0 6.4 0.00 0.00 0.00 40 994.8
20260831231554 28 68 3.2 6.4 0.00 0.00 0.00 40 994.8
20260831231057 28 40 1.6 9.7 0.00 0.00 0.00 40 994.8
20260831230603 28 360 3.2 9.7 0.00 0.00 0.00 39 994.9
20260831230040 28 92 4.8 9.7 0.00 0.00 0.00 39 994.9
20260831225544 28 49 4.8 8.0 0.00 0.00 0.00 40 994.9
20260831225056 28 305 1.6 12.9 0.00 0.00 0.00 40 995.0
20260831224522 28 92 3.2 12.9 0.00 0.00 0.00 39 995.0
20260831224017 28 355 3.2 8.0 0.00 0.00 0.00 40 995.1
20260831223523 28 355 4.8 8.0 0.00 0.00 0.00 39 995.2
20260831223057 28 59 1.6 9.7 0.00 0.00 0.00 41 995.2
20260831222603 28 55 3.2 9.7 0.00 0.00 0.00 41 995.2
20260831222023 28 318 4.8 9.7 0.00 0.00 0.00 40 995.3
20260831221556 28 273 3.2 8.0 0.00 0.00 0.00 40 995.4
20260831221052 28 53 3.2 9.7 0.00 0.00 0.00 40 995.4
20260831220601 28 333 3.2 9.7 0.00 0.00 0.00 41 995.5
20260831220034 27 11 3.2 8.0 0.00 0.00 0.00 40 995.6
20260831215542 27 329 3.2 6.4 0.00 0.00 0.00 42 995.6
20260831215049 27 350 1.6 6.4 0.00 0.00 0.00 40 995.7
20260831214504 27 28 1.6 9.7 0.00 0.00 0.00 40 995.7
20260831214011 27 113 3.2 12.9 0.00 0.00 0.00 39 995.7
20260831213518 27 9 4.8 8.0 0.00 0.00 0.00 41 995.7
20260831213055 27 148 1.6 8.0 0.00 0.00 0.00 42 995.8
20260831212558 27 187 3.2 6.4 0.00 0.00 0.00 42 995.9
20260831212004 27 90 3.2 6.4 0.00 0.00 0.00 42 995.9
20260831211541 26 306 3.2 8.0 0.00 0.00 0.00 42 995.9
20260831211047 26 333 4.8 8.0 0.00 0.00 0.00 43 995.9
20260831210553 26 35 1.6 6.4 0.00 0.00 0.00 44 996.1
20260831210026 26 319 3.2 6.4 0.00 0.00 0.00 44 996.2
20260831205532 26 150 3.2 8.0 0.00 0.00 0.00 44 996.4
20260831205038 26 78 3.2 4.8 0.00 0.00 0.00 45 996.4
20260831204505 25 290 3.2 6.4 0.00 0.00 0.00 44 996.4
20260831204010 25 25 1.6 8.0 0.00 0.00 0.00 46 996.5
20260831203524 25 18 3.2 8.0 0.00 0.00 0.00 45 996.7
20260831203101 25 50 1.6 6.4 0.00 0.00 0.00 47 996.7
20260831202556 25 28 1.6 6.4 0.00 0.00 0.00 45 996.8
20260831202102 25 32 0.0 8.0 0.00 0.00 0.00 45 996.9
20260831201537 25 53 1.6 8.0 0.00 0.00 0.00 45 997.0
20260831201042 24 311 3.2 12.9 0.00 0.00 0.00 47 996.9
20260831200550 24 305 6.4 12.9 0.00 0.00 0.00 48 997.0
20260831200030 24 259 1.6 8.0 0.00 0.00 0.00 48 997.2
20260831195530 24 55 1.6 8.0 0.00 0.00 0.00 48 997.3
20260831195038 23 57 0.0 6.4 0.00 0.00 0.00 49 997.2
20260831194506 23 355 0.0 9.7 0.00 0.00 0.00 48 997.3
20260831194012 24 183 3.2 9.7 0.00 0.00 0.00 50 997.4
20260831193518 24 86 3.2 8.0 0.00 0.00 0.00 49 997.3
20260831193054 23 132 1.6 6.4 0.00 0.00 0.00 51 997.3
20260831192600 23 231 3.2 8.0 0.00 0.00 0.00 51 997.3
20260831192005 23 325 3.2 8.0 0.00 0.00 0.00 51 997.4
20260831191541 22 66 1.6 4.8 0.00 0.00 0.00 52 997.6
20260831191032 22 71 1.6 4.8 0.00 0.00 0.00 53 997.7
20260831190541 22 80 1.6 6.4 0.00 0.00 0.00 52 997.7
20260831190109 22 98 3.2 6.4 0.00 0.00 0.00 54 998.0
20260831185519 22 36 3.2 8.0 0.00 0.00 0.00 53 997.8
20260831185027 22 54 4.8 8.0 0.00 0.00 0.00 53 998.0
20260831184558 22 295 4.8 8.0 0.00 0.00 0.00 53 998.0
20260831184102 22 79 1.6 6.4 0.00 0.00 0.00 55 998.0
20260831183516 21 33 3.2 8.0 0.00 0.00 0.00 55 998.0
20260831183030 21 11 4.8 8.0 0.00 0.00 0.00 55 998.0
20260831182536 21 325 3.2 8.0 0.00 0.00 0.00 55 998.1
20260831182042 21 5 1.6 8.0 0.00 0.00 0.00 57 998.1
20260831181508 22 32 3.2 8.0 0.00 0.00 0.00 55 998.2
20260831181022 21 19 3.2 8.0 0.00 0.00 0.00 57 998.2
20260831180527 21 102 1.6 4.8 0.00 0.00 0.00 59 998.4
20260831180042 21 151 0.0 4.8 0.00 0.00 0.00 60 998.5
20260831175550 21 149 1.6 9.7 0.00 0.00 0.00 60 998.5
20260831175056 20 149 3.2 9.7 0.00 0.00 0.00 60 998.6
20260831174532 20 143 3.2 8.0 0.00 0.00 0.00 60 998.6
20260831174041 20 46 1.6 4.8 0.00 0.00 0.00 60 998.6
20260831173542 20 49 1.6 9.7 0.00 0.00 0.00 63 998.6
20260831173022 20 355 3.2 9.7 0.00 0.00 0.00 62 998.7
20260831172528 20 59 3.2 8.0 0.00 0.00 0.00 62 998.7
20260831172032 20 70 1.6 4.8 0.00 0.00 0.00 62 998.8
20260831171507 19 51 1.6 6.4 0.00 0.00 0.00 64 998.9
20260831171016 19 48 1.6 6.4 0.00 0.00 0.00 66 998.9
20260831170522 18 321 1.6 8.0 0.00 0.00 0.00 65 998.8
20260831170050 18 34 4.8 8.0 0.00 0.00 0.00 67 999.0
20260831165556 18 338 0.0 4.8 0.00 0.00 0.00 65 999.1
20260831165001 18 25 0.0 4.8 0.00 0.00 0.00 65 999.2
20260831164546 18 22 0.0 4.8 0.00 0.00 0.00 67 999.1
20260831164048 18 298 1.6 4.8 0.00 0.00 0.00 67 999.2
20260831163550 18 336 1.6 8.0 0.00 0.00 0.00 68 999.2
20260831163024 17 30 1.6 8.0 0.00 0.00 0.00 68 999.3
20260831162533 17 40 1.6 4.8 0.00 0.00 0.00 69 999.3
20260831162037 17 40 0.0 6.4 0.00 0.00 0.00 70 999.3
20260831161602 17 40 3.2 6.4 0.00 0.00 0.00 70 999.4
20260831161006 17 49 3.2 6.4 0.00 0.00 0.00 70 999.4
20260831160511 17 17 1.6 4.8 0.00 0.00 0.00 72 999.4
20260831160043 16 46 1.6 6.4 0.00 0.00 0.00 72 999.4
20260831155548 16 51 3.2 8.0 0.00 0.00 0.00 72 999.4
20260831155057 16 47 3.2 8.0 0.00 0.00 0.00 72 999.5
20260831154524 16 74 4.8 8.0 0.00 0.00 0.00 73 999.5
20260831154032 16 51 3.2 6.4 0.00 0.00 0.00 74 999.5
20260831153536 15 25 3.2 6.4 0.00 0.00 0.00 75 999.6
20260831153050 15 53 3.2 6.4 0.00 0.00 0.00 77 999.6
20260831152546 15 34 1.6 4.8 0.00 0.00 0.00 79 999.7
20260831152053 14 28 0.0 6.4 0.00 0.00 0.00 80 999.7
20260831151502 13 20 3.2 6.4 0.00 0.00 0.00 81 999.8
20260831151003 13 49 1.6 4.8 0.00 0.00 0.00 83 999.7
20260831150508 13 323 1.6 4.8 0.00 0.00 0.00 84 999.7
20260831150044 13 43 1.6 4.8 0.00 0.00 0.00 84 999.7
20260831145551 12 212 0.0 4.8 0.00 0.00 0.00 85 999.8
20260831145051 12 213 0.0 0.0 0.00 0.00 0.00 85 999.7
20260831144530 12 213 0.0 0.0 0.00 0.00 0.00 85 999.7
20260831144035 12 213 0.0 0.0 0.00 0.00 0.00 84 999.8
20260831143536 12 213 0.0 0.0 0.00 0.00 0.00 84 999.7
20260831143056 12 213 0.0 0.0 0.00 0.00 0.00 84 999.7
20260831142558 12 213 0.0 1.6 0.00 0.00 0.00 84 999.7
20260831142103 12 213 0.0 3.2 0.00 0.00 0.00 83 999.6
20260831141537 12 213 1.6 3.2 0.00 0.00 0.00 83 999.6
20260831141043 12 213 1.6 3.2 0.00 0.00 0.00 83 999.7
20260831140552 12 213 1.6 3.2 0.00 0.00 0.00 83 999.8
20260831140019 12 213 1.6 3.2 0.00 0.00 0.00 83 999.7
20260831135526 12 213 1.6 3.2 0.00 0.00 0.00 83 999.7
20260831135032 12 213 1.6 3.2 0.00 0.00 0.00 83 999.7
20260831134558 12 213 3.2 3.2 0.00 0.00 0.00 83 999.6
20260831134005 12 213 1.6 3.2 0.00 0.00 0.00 83 999.6
20260831133511 12 213 1.6 3.2 0.00 0.00 0.00 83 999.8
20260831133048 12 213 0.0 3.2 0.00 0.00 0.00 82 999.8
20260831132554 12 213 1.6 3.2 0.00 0.00 0.00 82 999.7
20260831132100 12 213 1.6 4.8 0.00 0.00 0.00 82 999.9
20260831131538 12 213 1.6 4.8 0.00 0.00 0.00 82 999.9
20260831131039 12 213 1.6 3.2 0.00 0.00 0.00 82 999.9
20260831130550 12 213 1.6 3.2 0.00 0.00 0.00 82 999.8
20260831130024 12 213 1.6 3.2 0.00 0.00 0.00 82 999.9
20260831125511 12 213 1.6 4.8 0.00 0.00 0.00 82 999.9
20260831125021 12 213 3.2 4.8 0.00 0.00 0.00 82 1000.0
20260831124607 12 213 1.6 3.2 0.00 0.00 0.00 82 999.9
20260831124003 12 213 1.6 3.2 0.00 0.00 0.00 82 1000.0
20260831123505 12 213 1.6 3.2 0.00 0.00 0.00 82 1000.0
20260831123041 12 213 1.6 3.2 0.00 0.00 0.00 82 1000.0
20260831122550 12 213 1.6 4.8 0.00 0.00 0.00 82 1000.0
20260831122049 12 213 0.0 6.4 0.00 0.00 0.00 82 1000.0
20260831121518 12 296 0.0 0.0 0.00 0.00 0.00 82 1000.1
20260831121032 12 268 0.0 0.0 0.00 0.00 0.00 82 1000.1
20260831120540 12 268 0.0 0.0 0.00 0.00 0.00 82 1000.1
20260831120058 12 268 0.0 0.0 0.00 0.00 0.00 82 1000.2
20260831115502 12 268 0.0 0.0 0.00 0.00 0.00 82 1000.2
20260831115007 12 268 0.0 0.0 0.00 0.00 0.00 82 1000.3
20260831114518 12 268 0.0 0.0 0.00 0.00 0.00 81 1000.4
20260831114032 13 268 0.0 0.0 0.00 0.00 0.00 82 1000.3
20260831113537 13 268 0.0 0.0 0.00 0.00 0.00 82 1000.4
20260831113009 13 268 0.0 0.0 0.00 0.00 0.00 82 1000.4
20260831112523 13 268 0.0 0.0 0.00 0.00 0.00 82 1000.4
20260831112029 13 268 0.0 1.6 0.00 0.00 0.00 82 1000.4
20260831111616 13 268 0.0 3.2 0.00 0.00 0.00 82 1000.5
20260831111101 13 268 0.0 3.2 0.00 0.00 0.00 82 1000.4
20260831110505 13 268 1.6 4.8 0.00 0.00 0.00 81 1000.5
20260831110044 13 268 1.6 4.8 0.00 0.00 0.00 81 1000.6
20260831105549 13 268 1.6 4.8 0.00 0.00 0.00 81 1000.5
20260831105100 13 268 1.6 3.2 0.00 0.00 0.00 81 1000.6
20260831104547 13 268 0.0 4.8 0.00 0.00 0.00 81 1000.6
20260831104038 13 268 1.6 4.8 0.00 0.00 0.00 81 1000.5
20260831103548 13 271 1.6 4.8 0.00 0.00 0.00 81 1000.5
20260831103012 13 271 1.6 4.8 0.00 0.00 0.00 81 1000.6
20260831102529 13 271 0.0 4.8 0.00 0.00 0.00 81 1000.6
20260831102027 13 270 1.6 4.8 0.00 0.00 0.00 81 1000.6
20260831101559 13 271 1.6 4.8 0.00 0.00 0.00 81 1000.7
20260831101004 13 256 0.0 0.0 0.00 0.00 0.00 81 1000.8
20260831100503 13 256 0.0 0.0 0.00 0.00 0.00 81 1000.9
20260831100043 13 256 0.0 0.0 0.00 0.00 0.00 81 1000.9
20260831095547 13 256 0.0 0.0 0.00 0.00 0.00 81 1001.0
20260831095059 13 256 0.0 0.0 0.00 0.00 0.00 81 1001.2
20260831094524 13 256 0.0 3.2 0.00 0.00 0.00 81 1001.2
20260831094031 13 256 1.6 4.8 0.00 0.00 0.00 81 1001.2
20260831093537 13 256 1.6 4.8 0.00 0.00 0.00 80 1001.3
20260831093057 13 254 1.6 3.2 0.00 0.00 0.00 81 1001.2
20260831092501 13 254 1.6 3.2 0.00 0.00 0.00 80 1001.3
20260831092012 13 254 0.0 3.2 0.00 0.00 0.00 80 1001.3
20260831091542 13 254 0.0 4.8 0.00 0.00 0.00 80 1001.3
20260831091045 13 254 1.6 4.8 0.00 0.00 0.00 80 1001.4
20260831090553 13 269 1.6 4.8 0.00 0.00 0.00 80 1001.4
20260831090027 13 269 1.6 4.8 0.00 0.00 0.00 80 1001.5
20260831085537 13 273 1.6 4.8 0.00 0.00 0.00 80 1001.5
20260831085043 13 273 1.6 4.8 0.00 0.00 0.00 80 1001.5
20260831084521 13 270 1.6 4.8 0.00 0.00 0.00 80 1001.6
20260831084026 13 269 1.6 4.8 0.00 0.00 0.00 80 1001.7
20260831083533 14 270 1.6 4.8 0.00 0.00 0.00 80 1001.7
20260831083106 14 270 1.6 4.8 0.00 0.00 0.00 80 1001.7
20260831082514 14 243 1.6 4.8 0.00 0.00 0.00 79 1001.7
20260831082019 14 242 1.6 4.8 0.00 0.00 0.00 79 1001.8
20260831081549 14 242 1.6 4.8 0.00 0.00 0.00 79 1001.8
20260831081055 14 244 1.6 4.8 0.00 0.00 0.00 79 1002.0
20260831080557 14 244 1.6 4.8 0.00 0.00 0.00 78 1002.0
20260831080012 14 242 1.6 4.8 0.00 0.00 0.00 78 1002.2
20260831075525 14 242 1.6 4.8 0.00 0.00 0.00 78 1002.2
20260831075025 15 242 1.6 4.8 0.00 0.00 0.00 78 1002.2
20260831074559 15 231 1.6 4.8 0.00 0.00 0.00 77 1002.3
20260831074005 15 231 1.6 4.8 0.00 0.00 0.00 77 1002.2
20260831073513 15 231 1.6 4.8 0.00 0.00 0.00 77 1002.1
20260831073032 15 246 0.0 3.2 0.00 0.00 0.00 77 1002.2
20260831072535 15 341 0.0 3.2 0.00 0.00 0.00 76 1002.2
20260831072042 15 342 0.0 1.6 0.00 0.00 0.00 76 1002.3
20260831071553 15 259 0.0 0.0 0.00 0.00 0.00 75 1002.4
20260831071101 15 259 0.0 0.0 0.00 0.00 0.00 75 1002.5
20260831070507 15 259 0.0 0.0 0.00 0.00 0.00 75 1002.5
20260831070049 15 259 0.0 4.8 0.00 0.00 0.00 75 1002.5
20260831065538 15 259 1.6 4.8 0.00 0.00 0.00 75 1002.6
20260831065044 15 297 1.6 4.8 0.00 0.00 0.00 75 1002.6
20260831064558 15 304 0.0 3.2 0.00 0.00 0.00 75 1002.7
20260831064059 15 307 0.0 4.8 0.00 0.00 0.00 75 1002.8